User: anonymous
Location: Bangkok
(13.7500°N, 100.5170°E)
Time: 22:08:38
(UTC+07:00)
Language:

Cosmos 1898 Rocket - Orbit

View from above orbital plane
View from above orbital plane
View from above satellite
View from above satellite

Ground track
Ground track

The orbit data is extracted from the following two-line orbital elements,

1 18586U 87098B   14293.56852134  .00000263  00000-0  98316-4 0  1559
2 18586 074.0064 282.3242 0021449 211.9056 280.2903 14.36473860407971
Epoch (UTC): 20 October 2014 13:38:40
Eccentricity: 0.0021449
inclination: 74.0064°
perigee height: 755 km
apogee height: 785 km
right ascension of ascending node: 282.3242°
argument of perigee: 211.9056°
revolutions per day: 14.36473860
mean anomaly at epoch: 280.2903°
orbit number at epoch: 40797

The dashed part of the orbit path shows where the satellite is in the earth's shadow,  

DLR